Temp
56 54 54 54 54 56 56 54 57 55 55 56 56 57 55 53 54 53 52 52 51 51
54 54 53 54 54 55 56 56 56 56 56 57 56 60 56 53 54 52 52 52 52 51
54 54 54 53 53 54 56 55 55 55 56 55 56 57 57 54 54 53 52 53 52 52
54 54 53 52 52 53 55 55 54 55 55 56 55 57 55 55 55 56 55 56 54 54
53 52 52 52 53 54 54 54 53 54 55 56 56 56 56 56 56 58 58 58 57 54
51 50 51 52 54 53 54 55 55 54 56 56 57 56 57 59 57 57 57 58 58 54
50 51 51 52 54 54 54 54 53 53 55 57 57 56 58 58 57 59 59 58 58 56
51 52 52 52 52 54 54 55 55 54 53 56 57 58 57 57 56 54 55 57 58 58
52 52 52 51 51 53 55 54 55 55 55 55 57 54 55 57 54 56 56 58 55 56
53 51 50 51 51 50 52 53 53 54 55 55 53 52 52 54 53 53 52 55 54 59
50 50 50 50 50 52 52 52 52 53 54 52 54 52 50 52 52 52 53 54 54 58
49 49 50 48 48 49 49 51 52 53 53 51 52 50 49 52 55 52 53 55 60 58
49 48 47 47 48 49 49 52 54 54 53 53 54 49 48 51 54 50 51 53 58 54
53 50 47 46 48 49 49 52 51 53 54 53 54 50 47 48 51 52 57 56 58 59
MSLP
1019.10 1018.95 1018.59 1018.25 1017.95 1017.62 1017.53 1017.43 1017.11 1017.09 1016.97 1016.94 1016.93 1016.83 1016.74 1017.07 1017.10 1017.08 1017.21 1017.22 1016.89 1016.76
1018.95 1018.75 1018.40 1017.77 1017.54 1017.49 1017.10 1016.98 1016.79 1016.66 1016.70 1016.50 1016.43 1016.25 1016.47 1016.65 1016.73 1016.76 1016.61 1016.46 1016.17 1016.18
1018.62 1018.39 1018.02 1017.71 1017.10 1016.83 1016.54 1016.38 1016.33 1016.37 1016.26 1016.11 1016.16 1016.09 1016.18 1016.27 1016.29 1016.29 1016.11 1015.83 1015.71 1015.53
1018.20 1017.82 1017.60 1017.34 1016.97 1016.56 1016.04 1015.73 1015.69 1015.80 1015.71 1015.71 1015.76 1015.73 1015.85 1015.84 1015.81 1015.79 1015.63 1015.26 1015.32 1015.19
1018.01 1017.80 1017.39 1017.01 1016.45 1015.95 1015.46 1015.15 1015.07 1015.22 1015.34 1015.34 1015.38 1015.37 1015.35 1015.33 1015.34 1015.42 1015.20 1014.99 1015.06 1014.93
1017.96 1017.71 1017.19 1016.75 1016.17 1015.55 1015.09 1014.60 1014.49 1014.73 1014.83 1015.00 1014.99 1015.06 1014.85 1014.80 1015.00 1014.98 1014.80 1014.86 1014.78 1014.72
1017.69 1017.26 1016.74 1016.26 1015.72 1015.21 1014.79 1014.70 1014.62 1014.58 1014.57 1014.64 1014.39 1014.78 1014.57 1014.50 1014.62 1014.49 1014.53 1014.60 1014.47 1014.45
1017.40 1016.93 1016.43 1015.92 1015.43 1014.91 1014.49 1014.35 1014.29 1014.26 1014.24 1014.14 1014.19 1014.31 1014.17 1014.17 1014.34 1014.54 1014.58 1014.48 1014.32 1014.16
1017.29 1016.84 1016.33 1015.73 1015.33 1014.91 1014.46 1014.15 1014.06 1013.79 1013.62 1013.69 1013.79 1013.95 1013.84 1014.07 1014.29 1014.36 1014.31 1014.22 1014.40 1014.13
1017.29 1016.86 1016.27 1015.63 1015.21 1014.81 1014.42 1014.04 1013.82 1013.55 1013.23 1013.11 1013.31 1013.39 1013.45 1013.77 1013.98 1014.16 1014.35 1014.46 1014.47 1014.09
1017.26 1016.80 1016.18 1015.70 1015.21 1014.54 1014.03 1013.69 1013.58 1013.51 1013.30 1013.11 1012.99 1013.06 1013.19 1013.53 1013.83 1013.94 1014.22 1014.34 1014.40 1014.17
1017.20 1016.72 1016.29 1015.78 1015.23 1014.51 1014.06 1013.57 1013.34 1013.21 1013.07 1013.14 1012.96 1012.96 1013.16 1013.43 1013.90 1014.10 1014.10 1014.14 1014.06 1014.16
1017.11 1016.76 1016.33 1015.86 1015.20 1014.44 1013.93 1013.44 1012.98 1012.75 1012.90 1012.62 1012.45 1012.87 1012.94 1013.31 1013.80 1014.18 1014.25 1014.21 1014.19 1014.08
1016.99 1016.61 1016.13 1015.78 1015.15 1014.54 1014.08 1013.46 1013.06 1012.70 1012.62 1012.65 1012.65 1012.70 1012.90 1013.18 1013.75 1014.02 1014.04 1014.17 1014.21 1013.90
Wind_Speed
8 5 5 6 5 5 5 6 7 6 5 6 6 6 5 4 4 3 4 8 5 4
6 7 7 8 5 7 5 5 7 6 6 6 7 5 4 4 5 4 5 6 6 4
5 6 7 6 7 7 8 7 7 6 6 6 6 5 5 4 5 4 5 4 5 5
6 6 6 6 6 7 9 9 6 7 6 6 5 6 6 5 6 5 6 4 3 6
6 7 7 6 7 9 10 6 8 6 6 5 5 6 6 5 4 5 5 4 3 4
5 6 7 7 9 8 9 7 5 6 5 4 3 6 6 6 5 6 2 3 3 3
6 5 6 7 7 7 5 4 4 5 5 5 2 4 6 5 6 5 2 2 2 2
6 6 6 7 7 7 5 4 5 4 6 6 4 4 6 5 6 4 2 1 2 2
6 6 7 7 7 6 4 4 5 6 6 6 3 8 7 7 6 5 5 3 5 3
7 7 7 7 7 6 4 4 3 5 3 4 5 9 8 10 6 6 3 3 4 1
6 7 7 7 7 7 4 4 3 4 4 5 4 6 9 11 6 5 5 4 3 3
7 8 7 7 7 7 5 5 3 4 4 5 4 7 8 8 5 4 4 2 4 3
6 7 7 6 8 6 5 4 3 4 2 6 5 8 11 7 3 4 3 2 5 9
9 6 6 6 5 5 4 3 4 5 4 3 3 5 7 10 4 4 3 3 3 1
Wind_Direction
256 253 258 258 260 254 254 249 253 243 241 249 255 253 227 222 239 244 255 258 243 243
262 271 272 270 252 260 256 257 252 232 239 235 241 247 244 228 244 238 256 254 265 245
245 268 275 281 273 265 263 239 241 244 243 251 260 255 222 234 243 253 268 258 272 276
255 265 278 281 285 270 267 254 227 231 254 246 251 254 245 230 250 252 269 283 270 280
265 299 281 284 279 282 283 248 225 220 238 241 246 256 247 238 231 236 272 308 249 296
290 297 295 286 278 282 283 267 250 236 219 220 257 273 261 220 206 229 253 299 251 301
312 301 302 290 302 293 281 276 250 258 243 238 280 270 263 230 191 219 208 299 196 253
306 311 314 318 313 308 308 245 250 255 245 227 229 247 251 197 176 189 207 21 305 213
324 318 314 316 317 327 339 322 286 262 240 224 228 236 251 194 177 184 217 80 297 244
339 316 314 326 324 314 300 303 307 325 303 247 239 235 233 177 174 161 172 204 245 22
325 319 323 326 318 314 288 311 321 307 316 269 253 229 222 165 163 156 182 197 218 224
319 317 328 327 317 309 282 284 292 284 318 294 260 212 203 156 154 171 208 230 222 236
313 324 315 322 311 303 300 276 281 319 268 309 269 207 207 165 149 166 186 222 250 245
329 316 332 320 304 323 322 339 338 24 322 307 171 209 195 159 163 179 171 198 217 152